Weather Roundup
Issued by NWS Springfield, MO

Home | Current Version | Previous Version | Text Only | Print | Product List | Glossary On
Versions: 1 2 3 4 5 6 7 8 9 10 11 12 13 14 15 16 17 18 19 20 21 22 23 24 25 26 27 28 29 30 31 32 33 34 35 36 37 38 39 40 41 42 43 44 45 46 47 48 49 50
000
NZUS99 KSGF 210507
HRRSGF

HOURLY WEATHER
NATIONAL WEATHER SERVICE SPRINGFIELD MO
1200 AM CDT SAT OCT 21 2017

......SGF CWA......

CITY           SKY/WX    TMP DP  RH WIND       PRES   REMARKS
SPRINGFIELD    PTCLDY    63  59  87 SE20G28   29.96F
JOPLIN         PTCLDY    63  59  87 S10       29.93F
WEST PLAINS    CLOUDY    65  53  65 SE10      30.06F
ROLLA          PTCLDY    63  53  70 S13       30.02S
OSAGE BEACH    PTCLDY    65  56  72 S7        29.99S
BRANSON        PTCLDY    63  57  82 SE8       30.02S

......SURROUNDING SGF CWA......

CITY           SKY/WX    TMP DP  RH WIND       PRES   REMARKS
CHANUTE        CLEAR     65  59  81 S16       29.88F
PARSONS        CLEAR     65  59  81 S8        29.90F
COFFEYVILLE    CLEAR     65  60  84 S12       29.89S
EMPORIA        CLEAR     66  58  75 S23G32    29.81S
GROVE OK       PTCLDY    64  59  82 SE7       29.96R
ROGERS AR      MOCLDY    63  56  78 S18       29.99R
SILOAM SPRINGS PTCLDY    64  56  75 S14G22    29.98R
HARRISON AR    PTCLDY    63  58  83 SE12      30.02R
NEAR YELLVILLE MOCLDY    65  57  75 SE6       30.03R

......KANSAS AND MISSOURI......

CITY           SKY/WX    TMP DP  RH WIND       PRES   REMARKS
KANSAS CTY INT PTCLDY    67  57  70 S22G31    29.85F
DOWNTOWN KC    PTCLDY    69  58  67 S23G32    29.87S
COLUMBIA       CLOUDY    63  55  75 S14       29.98S
SEDALIA        PTCLDY    66  60  81 S17G24    29.96R
ST JOSEPH      LGT RAIN  68  58  70 S17G26    29.82F
ST LOUIS       CLOUDY    67  52  58 SE7       30.04F
SPIRIT OF STL  CLOUDY    68  52  56 S5        30.02S
KIRKSVILLE     CLEAR     64  56  75 S13       29.95S
WICHITA        MOCLDY    70  63  78 S23G32    29.78S
TOPEKA         CLOUDY    68  59  73 S17G30    29.80R
OLATHE         CLOUDY    64  57  78 S17G24    29.88S

......TENNESSEE......

CITY           SKY/WX    TMP DP  RH WIND       PRES   REMARKS
MEMPHIS        CLOUDY    67  54  63 SE8       30.09F
NASHVILLE      PTCLDY    55  50  83 S5        30.18S

......ARKANSAS.......

CITY           SKY/WX    TMP DP  RH WIND       PRES   REMARKS
FAYETTEVILLE   MOCLDY    65  58  78 S16G29    29.98S
FT SMITH       PTCLDY    66  59  78 E8        29.98F
LITTLE ROCK    PTCLDY    61  57  87 CALM      30.06S

......OKLAHOMA.......

CITY           SKY/WX    TMP DP  RH WIND       PRES   REMARKS
TULSA          CLOUDY    69  61  75 S18G26    29.88S
PONCA CITY     CLEAR     70  61  73 S21G29    29.83S
MCALESTER      CLOUDY    71  58  63 S10G21    29.94S
OKLAHOMA CITY  PTCLDY    69  63  81 S16       29.86S

......IOWA............

CITY           SKY/WX    TMP DP  RH WIND       PRES   REMARKS
DES MOINES     PTCLDY    63  52  67 S13       29.84S
QUAD CITIES    CLOUDY    68  49  50 S15G25    29.96S

......ILLINOIS........

CITY           SKY/WX    TMP DP  RH WIND       PRES   REMARKS
QUINCY         PTCLDY    67  50  54 S14       29.98F
CHICAGO        CLOUDY    67  48  50 S16       30.05S




USA.gov is the U.S. government's official web portal to all federal, state and local government web resources and services.